KDAY Airport Diagram

We have created a template for each of the higher traffic airports in the vZID airspace. They include KCMH, KCRW, KCVG, KDAY, KIND, KLEX and KSDF. You wil find usefull information including the airport diagram, weather, and specific airport procedures.

KDAY Weather

[Source: ADDS]
METAR
KDAY 180356Z 32004KT 10SM FEW250 03/M01 A3046 RMK AO2 SLP319 T00281011 =
KDAY 172320Z 1800/1824 32012KT P6SM SKC FM180500 32005KT P6SM SKC FM181300 VRB03KT P6SM SKC
TAF
KDAY 172320Z 1800/1824 32012KT P6SM SKC FM180500 32005KT P6SM SKC FM181300 VRB03KT P6SM SKC =

KDAY Operations

Approach/Departure operations for KDAY were consolidated into the Columbus TRACON quite some time back. We have recently made that change here at ZID. When arriving/departing the Dayton Airport and airports in the surrounding area, contact with the Columbus APP/DEP controller, if online, should be expected.

Calm Wind Configuration is runways 24L/R. This configuration is used up to and including 10kts.

Runway 24L typically departs south and east, except larger aircraft requiring a longer runway.

Runway 24R typically departs north and west.

 

JSN Epic template designed by JoomlaShine.com